Location: Les Coudrans
(46.1056°N, 1.1158°W)
Time: 17:27:53
(UTC+00:00)

Okean 3 - Pass Details

Date: 03 March 2021
Orbit: 577 x 600 km, 82.5° (Epoch: 15 April)

Event Time Altitude Azimuth Distance (km) Brightness Sun altitude
Rises 20:13:04 0° 348° (NNW) 2,832 7.3 -24.7°
Reaches altitude 10° 20:15:17 10° 345° (NNW) 1,930 6.5 -25.0°
Maximum altitude 20:19:31 65° 265° (W) 655 3.7 -25.7°
Enters shadow 20:19:31 65° 264° (W) 655 3.7 -25.7°
